This is the latest recevied weather packets stored in our database for station/object DL9BGG-13. If no packets are shown the sender has not sent any weather packets the latest 1 day(s).
| Time | Temp. | Humidity | Pressure | Rain* | Wind** | Luminosity | Snow |
|---|---|---|---|---|---|---|---|
| 1777959623 | 8.89° C | 81% | 1058.3 hPa | 0 mm | 2.68 m/s, 45° | - | - |
| 1777959542 | 8.89° C | 81% | 1058.3 hPa | 0 mm | 2.24 m/s, 67° | - | - |
| 1777959461 | 8.89° C | 81% | 1058.2 hPa | 0 mm | 2.24 m/s, 45° | - | - |
| 1777959395 | 8.89° C | 81% | 1058.3 hPa | 0 mm | 0 m/s | - | - |
| 1777959306 | 8.89° C | 81% | 1058.1 hPa | 0 mm | 2.68 m/s, 22° | - | - |
| 1777959233 | 8.89° C | 81% | 1058.3 hPa | 0 mm | 0.89 m/s, 90° | - | - |
| 1777959151 | 8.89° C | 81% | 1058.2 hPa | 0 mm | 1.79 m/s, 112° | - | - |
| 1777959062 | 8.89° C | 81% | 1058.2 hPa | 0 mm | 0.89 m/s, 67° | - | - |
| 1777958981 | 8.89° C | 81% | 1058.2 hPa | 0 mm | 0 m/s | - | - |
| 1777958893 | 8.89° C | 81% | 1058.2 hPa | 0 mm | 1.34 m/s, 45° | - | - |
| 1777958818 | 8.89° C | 81% | 1058.2 hPa | 0 mm | 0.89 m/s, 90° | - | - |
| 1777958737 | 8.89° C | 81% | 1058.2 hPa | 0 mm | 2.24 m/s, 45° | - | - |
| 1777958647 | 8.89° C | 81% | 1058.3 hPa | 0 mm | 3.58 m/s, 45° | - | - |
| 1777958558 | 8.89° C | 82% | 1058.1 hPa | 0 mm | 1.79 m/s, 90° | - | - |
| 1777958471 | 8.89° C | 82% | 1058.1 hPa | 0 mm | 3.58 m/s, 67° | - | - |
| 1777958404 | 8.89° C | 82% | 1058.1 hPa | 0 mm | 2.68 m/s, 45° | - | - |
| 1777958331 | 8.89° C | 82% | 1058.1 hPa | 0 mm | 1.79 m/s, 45° | - | - |
| 1777958257 | 8.89° C | 82% | 1058.1 hPa | 0 mm | 0.89 m/s, 45° | - | - |
| 1777958179 | 8.89° C | 82% | 1058.1 hPa | 0 mm | 2.68 m/s, 45° | - | - |
| 1777958112 | 8.89° C | 82% | 1058.1 hPa | 0 mm | 1.79 m/s, 45° | - | - |
| 1777958031 | 8.89° C | 82% | 1058.1 hPa | 0 mm | 1.79 m/s, 45° | - | - |
| 1777957949 | 8.89° C | 82% | 1058.1 hPa | 0 mm | 1.79 m/s, 90° | - | - |
| 1777957876 | 8.89° C | 82% | 1058 hPa | 0 mm | 0.89 m/s, 45° | - | - |
| 1777957803 | 8.89° C | 82% | 1058 hPa | 0 mm | 0 m/s | - | - |
| 1777957721 | 8.89° C | 82% | 1058.1 hPa | 0 mm | 1.34 m/s, 22° | - | - |
* Rain latest hour (hover to see other rain measurements)
** Current wind speed in m/s (hover to see current wind gust speed)